Regional Weather Roundup
Issued by NWS

Home | Current Version | Previous Version | Graphics & Text | Print | Product List | Glossary On
Versions: 1 2 3 4 5 6 7 8 9 10 11 12 13 14 15 16 17 18 19 20 21 22 23 24 25 26 27 28 29 30 31 32 33 34 35 36 37 38 39 40 41 42 43 44 45 46 47 48 49 50
051
ASUS44 KJAN 152203
RWRMS

MISSISSIPPI HOURLY WEATHER ROUNDUP
NATIONAL WEATHER SERVICE JACKSON MS
500 PM CDT TUE APR 15 2014

NOTE: "FAIR: INDICATES FEW OR NO CLOUDS BELOW 12,000 FEET WITH NO
SIGNIFICANT WEATHER AND/OR OBSTRUCTIONS TO VISIBILITY.

MSZ001>002-007>008-010>013-018>021-025>028-034>036-152300-
NORTHWEST MISSISSIPPI

CITY           SKY/WX    TMP DP  RH WIND       PRES   REMARKS
CLARKSDALE       N/A     50  32  50 N18       30.21F
CLEVELAND      FAIR      50  34  53 N12       30.18F
GREENWOOD      SUNNY     51  28  41 N20G25    30.15F
GREENVILLE     SUNNY     52  31  44 N18G26    30.17F
GRENADA        FAIR      52  21  30 N13G21    30.16S
OLIVE BRANCH   MOSUNNY   48  27  43 N13G21    30.20S
OXFORD         FAIR      48  19  32 N10       30.18F
TUNICA         CLEAR     50  30  46 N14       30.22S
$$

MSZ003>006-009-014>017-022>024-029>033-037>039-152300-
NORTHEAST MISSISSIPPI

CITY           SKY/WX    TMP DP  RH WIND       PRES   REMARKS
BELMONT        FAIR      50  22  33 N14G20    30.14R
COLUMBUS AFB   SUNNY     54  24  31 N15G25    30.11F
CORINTH        FAIR      50  21  32 N13       30.16F
GOLDN TRIANGLE SUNNY     54  27  35 N22G30    30.14F
STARKVILLE     FAIR      52  23  32 NW8G18    30.11F
TUPELO         SUNNY     51  24  34 N17G23    30.14F
$$

MSZ040-058-152300-
CENTRAL MISSISSIPPI

CITY           SKY/WX    TMP DP  RH WIND       PRES   REMARKS
JACKSON INTL   SUNNY     55  27  34 N16G22    30.13S
JACKSON HAWKNS SUNNY     53  25  33 N9G20     30.14R
MERIDIAN KEY   SUNNY     55  25  31 N16G24    30.08F
MERIDIAN NAS   SUNNY     54  22  28 N12G24    30.09F
RAYMOND        FAIR      55  50  82 N10G18    30.15S
VICKSBURG      SUNNY     54  33  45 N14G26    30.18S
$$

MSZ059>079-152300-
SOUTH MISSISSIPPI

CITY           SKY/WX    TMP DP  RH WIND       PRES   REMARKS
BROOKHAVEN     FAIR      54  30  40 NW13      30.14R
COLUMBIA       FAIR      57  28  33 MISG      30.09F
HATTIESBURG    SUNNY     59  27  29 NW14      30.09R
MCCOMB         SUNNY     56  27  32 N14G22    30.11S
NATCHEZ          N/A     54  30  40 N12G21    30.16S
PINE BELT      SUNNY     57  27  30 N14G21    30.10R
$$

MSZ080>082-152300-
COASTAL MISSISSIPPI

CITY           SKY/WX    TMP DP  RH WIND       PRES   REMARKS
BAY ST LOUIS   SUNNY     61  25  25 N12G23    30.06S
BILOXI         MOSUNNY   59  28  30 N21       30.05R
PASCAGOULA     MOSUNNY   60  35  39 N12G22    30.03R
GULFPORT       MOSUNNY   62  26  25 N15G26    30.04S
$$



USA.gov is the U.S. government's official web portal to all federal, state and local government web resources and services.